Regional Weather Roundup
Issued by NWS

Current Version | Previous Version | Text Only | Print | Product List | Glossary On
Versions: 1 2 3 4 5 6 7 8 9 10 11 12 13 14 15 16 17 18 19 20 21 22 23 24 25 26 27 28 29 30 31 32 33 34 35 36 37 38 39 40 41 42 43 44 45 46 47 48 49 50
000
ASUS45 KPSR 010610
RWRAZ

ARIZONA REGIONAL HOURLY WEATHER ROUNDUP
NATIONAL WEATHER SERVICE PHOENIX AZ
1100 PM MST SAT JAN 31 2015

NOTE: FAIR INDICATES FEW OR NO CLOUDS BELOW 12,000 FEET WITH NO
SIGNIFICANT WEATHER AND/OR OBSTRUCTIONS TO VISIBILITY.

AZZ001>003-036-010700-
NORTHWEST ARIZONA

CITY           SKY/WX    TMP DP  RH WIND       PRES   REMARKS
BULLHEAD CITY  CLEAR     63  41  45 N8        29.99R
KINGMAN        CLEAR     44  38  79 SE7       30.04R
6HR MIN TEMP:  43; 6HR MAX TEMP:  55;

$$

AZZ004>008-015-016-018-010700-
NORTH CENTRAL ARIZONA

CITY           SKY/WX    TMP DP  RH WIND       PRES   REMARKS
GRAND CANYON   CLEAR     27  25  92 CALM      30.08R
6HR MIN TEMP:  26; 6HR MAX TEMP:  44;

PRESCOTT       CLEAR     40  37  89 NW3       30.02R
6HR MIN TEMP:  40; 6HR MAX TEMP:  50; 6HR PCP:  0.04;

FLAGSTAFF      CLEAR     30  27  88 S3        30.04R
6HR MIN TEMP:  30; 6HR MAX TEMP:  41;

PAYSON         CLEAR     39  39 100 CALM      30.02R
$$

AZZ009>014-017-010700-
NORTHEAST ARIZONA

CITY           SKY/WX    TMP DP  RH WIND       PRES   REMARKS
WINSLOW        CLEAR     40  36  86 W9        30.02R WCI  34
6HR MIN TEMP:  39; 6HR MAX TEMP:  48;

SAINT JOHNS    CLOUDY    41  39  93 W5        29.99R
6HR MIN TEMP:  41; 6HR MAX TEMP:  47; 6HR PCP:  0.02;

WINDOW ROCK    CLOUDY    35  30  82 N9        30.02R WCI  28
6HR MIN TEMP:  35; 6HR MAX TEMP:  41;

SHOW LOW       MOCLDY    36  34  93 N3        30.04R
$$

AZZ023-010700-
GREATER PHOENIX AREA

CITY           SKY/WX    TMP DP  RH WIND       PRES   REMARKS
PHOENIX        MOCLDY    54  52  93 CALM      29.94R
6HR MIN TEMP:  53; 6HR MAX TEMP:  59;

BUCKEYE          N/A     50  50 100 CALM      29.97R
LUKE AFB       PTCLDY    52  51  97 CALM      29.95R
DEER VALLEY    CLEAR     51  50  96 CALM      29.95R
6HR MIN TEMP:  51; 6HR MAX TEMP:  59; 6HR PCP: TRACE;

SCOTTSDALE     CLEAR     53  50  89 NW3       29.96R
6HR MIN TEMP:  53; 6HR MAX TEMP:  59;

MESA-GATEWAY   PTCLDY    50  48  93 CALM      29.97R
$$

AZZ027-028-010700-
SOUTHWEST MARICOPA COUNTY AND PINAL COUNTY

CITY           SKY/WX    TMP DP  RH WIND       PRES   REMARKS
CASA GRANDE    PTCLDY    52  48  87 CALM      29.97R
6HR MIN TEMP:  52; 6HR MAX TEMP:  55;

GILA BEND      FAIR      52  52 100 S3        29.95R
6HR MIN TEMP:  52; 6HR MAX TEMP:  57;

$$

AZZ503-504-507>509-010700-
SOUTHEAST ARIZONA

CITY           SKY/WX    TMP DP  RH WIND       PRES   REMARKS
TUCSON         CLOUDY    52  50  93 NE3       29.98R
6HR MIN TEMP:  52; 6HR MAX TEMP:  54; 6HR PCP:  0.01;

DAVIS-MONTHAN  MOCLDY    51  51 100 NE2       29.96R
6HR MIN TEMP:  51; 6HR MAX TEMP:  53;

NOGALES        PTCLDY    44  40  85 E5        29.97R
6HR MIN TEMP:  44; 6HR MAX TEMP:  53; 6HR PCP: TRACE;

SIERRA VISTA   MOCLDY    45  43  93 SW5       29.99R
6HR MIN TEMP:  45; 6HR MAX TEMP:  51;

DOUGLAS        CLOUDY    44  42  93 NW3       29.98R
6HR MIN TEMP:  42; 6HR MAX TEMP:  55; 6HR PCP:  0.08;

SAFFORD        LGT RAIN  49  47  93 W8        29.95R
6HR MIN TEMP:  49; 6HR MAX TEMP:  51; 6HR PCP:  0.02;

$$

AZZ020-021-025-026-031-010700-
SOUTHWEST ARIZONA

CITY           SKY/WX    TMP DP  RH WIND       PRES   REMARKS
YUMA           CLEAR     61  49  64 CALM      29.95R
6HR MIN TEMP:  61; 6HR MAX TEMP:  68;

$$

CAZ031-033-041-043-047-048-061-010700-
SOUTHERN CALIFORNIA

CITY           SKY/WX    TMP DP  RH WIND       PRES   REMARKS
DOWNTOWN L.A.  CLEAR     59  54  83 CALM      29.98R
6HR MIN TEMP:  59; 6HR MAX TEMP:  67;

L.A. AIRPORT   CLEAR     58  55  90 E6        29.98R
6HR MIN TEMP:  58; 6HR MAX TEMP:  62;

SAN DIEGO      PTCLDY    59  52  77 CALM      30.00R
6HR MIN TEMP:  59; 6HR MAX TEMP:  64;

BURBANK        CLEAR     57  46  66 CALM      29.98R
6HR MIN TEMP:  57; 6HR MAX TEMP:  72;

ONTARIO        PTCLDY    57  50  77 NE3       29.99R
6HR MIN TEMP:  56; 6HR MAX TEMP:  70;

RIVERSIDE      CLEAR     58  44  60 CALM      29.99R
6HR MIN TEMP:  57; 6HR MAX TEMP:  69;

PALM SPRINGS   CLEAR     63  41  44 VRB3      30.00R
6HR MIN TEMP:  61; 6HR MAX TEMP:  71;

EL CENTRO NAS  CLEAR     54  42  64 W9        29.95R
6HR MIN TEMP:  54; 6HR MAX TEMP:  72;

IMPERIAL       CLEAR     55  45  68 NW7       29.94R
6HR MIN TEMP:  54; 6HR MAX TEMP:  71;

BLYTHE         CLEAR     56  51  84 W3        29.96R
6HR MIN TEMP:  56; 6HR MAX TEMP:  68;

NEEDLES        CLEAR     60  42  51 N8        29.98R
6HR MIN TEMP:  59; 6HR MAX TEMP:  69;

$$

NVZ020-UTZ003-010700-
SOUTHERN NEVADA-UTAH

CITY           SKY/WX    TMP DP  RH WIND       PRES   REMARKS
LAS VEGAS      CLEAR     55  39  54 SW7       30.01R
6HR MIN TEMP:  53; 6HR MAX TEMP:  63;

SALT LAKE CITY CLEAR     32  28  85 N6        30.17R WCI  26
6HR MIN TEMP:  32; 6HR MAX TEMP:  44;

$$

NMZ009-TXZ055-010700-
NEW MEXICO-WEST TEXAS

CITY           SKY/WX    TMP DP  RH WIND       PRES   REMARKS
ALBUQUERQUE    MOCLDY    38  33  82 N10       29.98R WCI  31
6HR MIN TEMP:  37; 6HR MAX TEMP:  41;

EL PASO        MOCLDY    53  42  66 W8        29.92S
6HR MIN TEMP:  51; 6HR MAX TEMP:  56;

$$


........................KEY........................
SKY/WX - SKY CONDITION/WEATHER
TMP    - TEMPERATURE IN FAHRENHEIT
DP     - DEW POINT IN FAHRENHEIT
RH     - RELATIVE HUMIDITY IN PERCENT
WIND   - DIRECTION AND SPEED IN MILES PER HOUR (MPH)
VRB    - VARIABLE WIND DIRECTION
PRES   - MEAN SEA LEVEL PRESSURE IN INCHES OF MERCURY
         F - FALLING PRESSURE   R - RISING PRESSURE
         S - STEADY PRESSURE
VSB    - VISIBILITY IN MILES
HX     - HEAT INDEX IN FAHRENHEIT
WCI    - WIND CHILL INDEX IN FAHRENHEIT
TC     - TEMPERATURE IN CELSIUS WHICH IS ALSO KNOWN AS
         TEMPERATURE IN CENTIGRADE
AFB    - AIR FORCE BASE
         LUKE AFB IS LUKE AIR FORCE BASE
         DAVIS-MONTHAN IS DAVIS-MONTHAN AIR FORCE BASE
NAS    - NAVAL AIR STATION
         EL CENTRO NAS IS EL CENTRO NAVAL AIR STATION
N/A    - NOT AVAILABLE



USA.gov is the U.S. government's official web portal to all federal, state and local government web resources and services.